Regional Weather Roundup
Issued by NWS

Home | Current Version | Previous Version | Graphics & Text | Print | Product List | Glossary On
Versions: 1 2 3 4 5 6 7 8 9 10 11 12 13 14 15 16 17 18 19 20 21 22 23 24 25 26 27 28 29 30 31 32 33 34 35 36 37 38 39 40 41 42 43 44 45 46 47 48 49
000
ASUS45 KCYS 011010
RWRWY

WYOMING REGIONAL WEATHER ROUNDUP
NATIONAL WEATHER SERVICE CHEYENNE WY
400 AM MDT WED OCT 01 2014

NOTE:  "FAIR" INDICATES FEW OR NO CLOUDS BELOW 12,000 FEET
WITH NO SIGNIFICANT WEATHER AND/OR OBSTRUCTIONS TO VISIBILITY.

WYZ001-011100-
YELLOWSTONE NATIONAL PARK

CITY           SKY/WX    TMP DP  RH WIND       PRES   REMARKS
LK YELLOWSTONE   N/A     32  28  85 VRB3      29.97F
W YELLOWSTONE  NOT AVBL

$$
WYZ002>013-054>058-071-098>099-011100-
NORTHERN WYOMING

CITY           SKY/WX    TMP DP  RH WIND       PRES   REMARKS
JACKSON        CLOUDY    39  36  87 S5        29.94S
CODY           CLOUDY    45  41  87 CALM      29.88S
GREYBULL       CLOUDY    49  43  80 NW8       29.84F
WORLAND        LGT RAIN  47  43  86 W6        29.86S
SHERIDAN       CLOUDY    49  40  71 NW15      29.85S
BUFFALO        CLOUDY    47  38  71 N23G37    29.86R
GILLETTE       CLOUDY    48  44  86 NW9       29.83S
HULETT         CLOUDY    50  45  81 SW8       29.82
NEWCASTLE      CLOUDY    48  43  81 NW6       29.83

$$
WYZ014>020-022>026-101>103-011100-
CENTRAL WYOMING

CITY           SKY/WX    TMP DP  RH WIND       PRES   REMARKS
BIG PINEY      PTCLDY    29  24  82 NW7       29.96F WCI  22
PINEDALE       MOSUNNY   32  30  93 NW5       29.95F WCI  27
DUBOIS         PTSUNNY   34  27  75 NW10      29.90S WCI  26
LANDER         MOCLDY    43  36  76 N10       29.87S
RIVERTON       MOCLDY    41  37  86 N13       29.88R
CASPER         MOCLDY    47  40  76 SW6       29.84F
DOUGLAS        CLOUDY    48  44  86 CALM      29.87R

$$
WYZ021-027>030-104>119-011100-
SOUTHERN WYOMING

CITY           SKY/WX    TMP DP  RH WIND       PRES   REMARKS
EVANSTON       PTCLDY    35  34  96 SW3       29.98F
KEMMERER       MOSUNNY   32  32 100 NW6       29.98F WCI  26
FORT BRIDGER     N/A     37  36  99 SW6       30.00F WCI  32
ROCK SPRINGS   MOCLDY    37  34  89 W12       29.97S WCI  29
DIXON          FAIR      42  40  90 CALM      29.99F
RAWLINS        PTCLDY    40  35  83 SW15      29.94R WCI  32
SARATOGA       FAIR      41  36  81 SW9       29.96S
LARAMIE        CLOUDY    42  34  73 NE10      29.93F
CHEYENNE       CLOUDY    45  35  68 W7        29.90R
TORRINGTON     PTCLDY    49  43  80 N7        29.82R
PINE BLUFFS    PTSUNNY   39  36  87 W3        29.88R

$$



USA.gov is the U.S. government's official web portal to all federal, state and local government web resources and services.